www.pogodaiklimat.ru

Погода и климат >> Архив погоды >> Мексика >> Ciudad Constitucion


ПОГОДА в Ciudad Constitucion

  • Прогноз погоды в Ciudad Constitucion
  • Монитор погоды в Ciudad Constitucion
  • Климат города

АРХИВ ПОГОДЫ в Ciudad Constitucion

Время (UTC), дата Ветер
(напр.,м/с)
 
Видим.   Явления Облачность Т
(С)
Тd
(С)
f
(%)
Тe
(С)
Тes
(С)
Комфортность P
(гПа)
Po
(гПа)
Тmin
(С)
Tmax
(С)
R
(мм)
R24
(мм)
S
(см)
03 14.11 СВ 4 5000 м ясно +20.2 +5.6 38 +21 +21 комфорт 1016.0 1010.5
06 14.11 СВ 2 5000 м ясно +13.2 +5.5 60 +13 +13 1017.4 1011.8 +7.4 +30.0
15 14.11 СВ 1 8000 м мгла {туман} ясно +13.0 +5.2 59 +13 +14 1018.9 1013.0
18 14.11 СВ 4 10 км мгла {туман} ясно +26.0 +8.6 33 +26 +33 жарко 1018.8 1013.1 +6.8 +26.4
21 14.11 СВ 3 10 км мгла {туман} 1/0
[Cs]
+30.2 +5.4 21 +29 +36 жарко 1015.4 1009.7
00 15.11 В 3 10 км мгла {туман} 1/0
[Cs]
+29.6 +7.4 25 +29 +29 жарко 1014.6 1009.0 +6.8 +31.0
03 15.11 ЮЗ 3 5000 м ясно +21.0 +7.9 43 +23 +23 комфорт 1016.1 1010.6
06 15.11 С 2 5000 м ясно +16.4 +8.5 60 +17 +17 1016.8 1011.2 +6.8 +31.0
15 15.11 СВ 2 12 км мгла {туман} ясно +14.0 +5.5 57 +14 +14 1016.7 1010.9
18 15.11 В 2 12 км мгла {туман} 3/0
[Cs]
+27.4 +7.0 27 +27 +36 жарко 1016.8 1011.1 +10.2 +28.0
21 15.11 З 2 12 км мгла {туман} 6/0
[Cs]
+30.4 +5.8 21 +29 +37 жарко 1014.1 1008.5
00 16.11 З 4 10 км мгла {туман} 8/0
[Cs]
+28.2 +7.8 28 +28 +28 жарко 1013.5 1008.0 +10.2 +31.0
06 16.11 С 1 5000 м 4/0
[Cs]
+17.6 +13.7 78 +19 +19 1015.7 1010.1 +10.2 +31.0
15 16.11 В 1 10 км мгла {туман} 9/0
[Cs]
+13.6 +10.1 79 +14 +15 1016.1 1010.4
18 16.11 ЮВ 1 10 км мгла {туман} 9/0
[Cs]
+26.4 +11.7 40 +28 +37 жарко 1016.1 1010.4 +10.4 +26.6
21 16.11 СЗ 2 10 км мгла {туман} 9/0
[Cs]
+27.6 +7.4 28 +27 +34 жарко 1013.9 1008.2
00 17.11 З 5 8000 м мгла {туман} 9/0
[Cs]
+25.4 +9.8 37 +26 +26 жарко 1014.0 1008.4 +10.2 +29.0
15 17.11 СВ 2 10 км мгла {туман} ясно +16.0 +9.4 65 +16 +17 1017.8 1012.0
21 17.11 С 2 10 км мгла {туман} 1/1 1000 м
[Cu hum]
+28.8 +13.7 40 +31 +39 жарко 1015.1 1009.5
00 18.11 З 5 10 км мгла {туман} ясно +25.8 +14.0 48 +28 +28 жарко 1014.3 1008.7 +12.5 +29.2
15 18.11 штиль 0 10 км мгла {туман} 1/0
[Cs]
+16.2 +13.7 85 +16 +17 1018.3 1012.5
18 18.11 З 3 10 км мгла {туман} 4/0
[Cs]
+24.4 +16.2 60 +28 +35 душно 1018.0 1012.4 +12.6 +25.5
21 18.11 З 4 10 км мгла {туман} 9/1 840 м
[St Cs]
+27.6 +14.2 44 +30 +34 жарко 1015.4 1009.7
00 19.11 З 4 8000 м мгла {туман} 9/0
[Cs]
+24.8 +13.9 51 +27 +27 жарко 1014.7 1009.1 +12.6 +28.6
15 19.11 СВ 1 8000 м мгла {туман} 9/0
[Cs]
+14.4 +12.9 91 +15 +15 1018.0 1012.2
18 19.11 СЗ 3 10 км мгла {туман} 9/0
[Cs]
+23.4 +15.8 62 +28 +34 душно 1018.5 1012.8 +12.6 +23.6
21 19.11 СЗ 4 12 км мгла {туман} 9/0
[Cs]
+26.2 +13.6 46 +28 +33 жарко 1015.2 1009.5
00 20.11 З 4 12 км мгла {туман} 9/0
[Cs]
+24.6 +11.9 45 +26 +26 жарко 1014.5 1008.9 +12.6 +27.0
15 20.11 СВ 1 8000 м мгла {туман} 9/0
[Cs]
+17.0 +14.2 84 +18 +19 1016.9 1011.1
18 20.11 С 3 10 км мгла {туман} 9/0
[Cs]
+24.4 +15.4 57 +27 +33 жарко 1017.2 1011.5 +13.6 +24.5
21 20.11 З 4 12 км мгла {туман} 9/0
[Cs]
+26.2 +14.1 47 +28 +33 жарко 1014.9 1009.2

 

Местоположение метеостанции Ciudad Constitucion (Мексика): широта 24.95 долгота -111.70 высота над уровнем моря 48 м.

В архиве по умолчанию представлена погода в Ciudad Constitucion за последнюю неделю. Архивные данные за месяц целиком и за предыдущие месяцы, начиная с января 2011 года, Вы можете получить, выбрав интересующий диапазон дат из раскрывающегося списка и нажав кнопку "Ввод!".


*Определитесь, кто Вы:
робот инопланетянин человек

Внимание! Время в таблицах - всемирное. Для получения местного времени необходимо прибавить поправку, которая в Ciudad Constitucion равна -6 ч.

Смотрите также архив погоды в соседних городах и на ближайших метеорологических станциях:

Погода в Loreto (Мексика) (126 км)
Погода в La Paz (Мексика) (166 км)
Погода в Santa Rosalia (Мексика) (265 км)
Погода в Ciudad Obregon (Мексика) (329 км)
Погода в Guaymas (Мексика) (340 км)
Погода в Empalme (Мексика) (348 км)
Погода в Choix (Мексика) (402 км)
Погода в Culiacan (Мексика) (434 км)
Погода в Hermosillo (Мексика) (465 км)
Погода в Hermosillo la Magna (Мексика) (465 км)

Пояснения к столбцам:

Ветер - указаны скорость ветра в м/с - средняя за 10 мин, порывы в срок и между сроками (в фигурных скобках) и направление, откуда дует ветер: С - северный, СВ - северо-восточный, В - восточный, ЮВ - юго-восточный, Ю - южный, ЮЗ - юго-западный, З - западный, СЗ - северо-западный.
Видимость - горизонтальная дальность видимости в метрах или километрах. При видимости от 1 до 10 км при отсутствии осадков обычно наблюдается дымка, при ухудшении видимости до 1 км и менее - туман. В сухую погоду видимость может ухудшаться дымом, пылью или мглою.
Явления - указаны атмосферные явления, наблюдавшиеся в срок или в последний час перед сроком; фигурными скобками обозначены явления, наблюдавшиеся между сроками (за 1-3 часа до срока); квадратными скобками обозначены град или гололедные отложения с указанием их диаметра в мм.
Облачность - указаны через наклонную черту общая и нижняя облачность в баллах и высота нижней границы облаков в метрах; квадратными скобками обозначены формы облаков: Ci - перистые, Cs - перисто-слоистые, Cc - перисто-кучевые, Ac - высококучевые, As - высокослоистые, Sc - слоисто-кучевые, Ns - слоисто-дождевые, Cu - кучевые, Cb - кучево-дождевые. Подробнее классификацию облаков см. в Атласе облаков (PDF).
T - Температура воздуха - температура, измеренная на высоте 2 м над землей.
Td - Температура точки росы - температура, при понижении до которой содержащийся в воздухе водяной пар достигнет насыщения.
f - Относительная влажность воздуха - влажноcть воздуха, измеренная на высоте 2 м над землей.
Te - Эффективная температура - температура, которую ощущает одетый по сезону человек в тени. Характеристика душности погоды. При расчете учитывается влияние влажности воздуха и скорости ветра на теплоощущения человека.
Tes - Эффективная температура на солнце - температура, которую ощущает человек, с поправкой на солнечный нагрев. Характеристика знойности погоды. Зависит от высоты солнца над горизонтом, облачности и скорости ветра. Ночью, в пасмурную погоду, а также при ветре 12 м/с и более поправка равна нулю.
P - Атмосферное давление - приведенное к уровню моря атмосферное давление.
Po - Атмосферное давление - измеренное на уровне метеостанции атмосферное давление.
Tmin - Минимальная температура - минимум температуры воздуха на высоте 2 м над землей.
Tmax - Максимальная температура - максимум температуры воздуха на высоте 2 м над землей.
R - Количество осадков - Количество выпавших осадков за период времени, мм. При наведении курсора мыши на число - период времени, за который выпало указанное количество осадков.
R24 - Количество осадков - Количество выпавших осадков за 24 часа, мм.
S - Снежный покров - Высота снежного покрова, см. При наведении курсора мыши на число - состояние снежного покрова и степень покрытия местности в баллах.